Location: Potomac
(46.8816°N, 113.5795°W)
Time: 14:04:16
(UTC+00:00)

NANOSAT C BR1 - Pass Details

Date: 04 July 2022
Orbit: 584 x 599 km, 98.0° (Epoch: 07 August)

Event Time Altitude Azimuth Distance (km) Brightness Sun altitude
Rises 09:39:51 0° 15° (NNE) 2,852 ? -15.1°
Reaches altitude 10° 09:42:02 10° 17° (NNE) 1,946 ? -14.9°
Maximum altitude 09:46:15 72° 102° (ESE) 634 ? -14.6°
Enters shadow 09:49:02 21° 184° (S) 1,370 ? -14.3°
